Terminal Aerodrome Forecast
Issued by NWS Hastings, NE

Home | Current Version | Previous Version | Text Only | Print | Product List | Glossary On
Versions: 1 2 3 4 5 6 7 8 9 10 11 12 13 14 15
000
FTUS43 KGID 272335
TAFGRI
TAF
KGRI 272335Z 2800/2824 17009KT P6SM FEW250
     FM281100 18006KT P6SM BKN130
     FM281400 19007KT P6SM SCT150
     FM281800 18011KT P6SM SCT200=

USA.gov is the U.S. government's official web portal to all federal, state and local government web resources and services.